Location: Marcé
(47.5801°N, 0.3280°W)
Time: 23:02:13
(UTC+02:00)

ACS3 Solar Sail - Pass Details

Date: 23 June 2024
Orbit: 992 x 1023 km, 97.4° (Epoch: 12 July)

Event Time Altitude Azimuth Distance (km) Brightness Sun altitude
Exits shadow 23:50:27 11° 183° (S) 2,695 6.6 -12.9°
Maximum altitude 23:56:23 59° 261° (W) 1,145 5.3 -13.4°
Drops below altitude 10° 00:02:32 10° 341° (NNW) 2,768 8.6 -14.0°
Sets 00:05:05 0° 345° (NNW) 3,721 9.5 -14.2°
